CAPE
0 0 0 0 0 0 0 0 0 0 0 0 0 0 0 0 0 0 0 0 0 0 0 6 244 341 202 320 275 31 57 31 0 6 0 0 0 21 7 234 296 300 417 701 660
0 0 0 0 0 0 0 0 0 0 0 0 0 0 0 0 0 0 0 0 0 0 0 1 34 94 41 131 11 2 0 4 0 0 0 4 0 0 54 438 395 342 705 586 603
0 0 0 0 0 0 0 0 0 0 0 0 0 0 0 0 0 0 0 0 0 0 0 0 0 0 0 0 0 0 0 6 1 0 0 0 7 0 46 32 208 555 715 570 706
0 0 0 0 0 0 0 0 0 0 0 0 0 0 0 0 0 0 0 0 0 0 0 0 0 0 0 0 1 0 0 0 5 0 0 1 0 15 0 76 413 746 707 710 742
0 0 0 0 0 0 0 0 0 0 0 0 0 0 0 0 0 0 0 0 0 0 0 0 0 0 0 0 0 0 0 3 0 0 0 0 0 0 0 42 45 810 641 796 858
0 0 0 0 0 0 0 0 0 0 0 0 0 0 0 0 0 0 0 0 0 0 0 0 0 0 0 0 0 0 0 0 0 0 0 0 0 23 10 26 180 848 677 741 985
0 0 0 0 0 0 0 0 0 0 0 0 0 0 0 0 0 0 0 0 0 0 0 0 0 0 0 0 0 0 0 0 0 0 0 0 0 0 18 31 223 596 689 710 964
0 0 0 0 0 0 0 0 0 0 0 0 0 0 0 0 0 0 0 0 0 0 0 0 0 0 0 0 0 0 0 0 0 0 1 0 0 18 33 52 404 469 603 732 897
0 0 0 0 0 0 0 0 0 0 0 0 0 0 0 0 0 0 0 0 0 0 0 0 0 0 0 0 0 0 0 0 0 0 0 0 0 0 5 85 239 494 579 702 990
0 0 0 0 0 0 0 0 0 0 0 0 0 0 0 0 0 0 0 0 0 0 0 0 0 0 0 0 0 0 0 0 0 0 0 0 0 0 3 4 39 465 733 748 1144
0 0 0 0 0 0 0 0 0 0 0 0 0 0 0 0 0 0 0 0 0 0 0 0 0 0 0 0 0 0 0 0 0 0 0 0 0 0 0 6 0 335 962 835 1005
0 0 0 0 0 0 0 0 0 0 0 0 0 0 0 0 0 0 0 0 0 0 0 0 0 0 0 0 0 0 0 0 0 0 0 0 0 0 0 0 0 84 862 1049 1003
0 0 0 0 0 0 0 0 0 0 0 0 0 0 0 0 0 0 0 0 0 0 0 0 0 0 0 0 0 0 0 0 0 0 0 0 0 0 0 0 0 7 558 962 1138
0 0 0 0 0 0 0 0 0 0 0 0 0 0 0 0 0 0 0 0 0 0 0 0 0 0 0 0 0 0 0 0 0 0 0 0 0 0 0 0 0 24 29 773 1064
0 0 0 0 0 0 0 0 0 0 0 0 0 0 0 0 0 0 0 0 0 0 0 0 0 0 0 0 0 0 0 0 0 0 0 0 0 0 0 0 47 79 48 293 1090
0 0 0 0 0 0 0 0 0 0 0 0 0 0 0 0 0 0 0 0 0 0 0 0 0 0 0 0 0 0 0 0 0 0 0 0 0 0 4 2 8 265 305 346 1172
0 0 0 0 0 0 0 0 0 0 0 0 0 0 0 0 0 0 0 0 0 0 0 0 0 0 0 0 0 0 0 0 0 0 0 0 0 0 4 0 27 69 367 951 1152
0 0 0 0 0 0 0 0 0 0 0 0 0 6 0 0 0 0 0 7 1 0 0 0 0 0 0 0 0 0 0 0 0 0 0 0 0 0 0 0 32 50 1219 1441 1455
0 0 0 0 0 0 0 0 0 0 0 0 0 0 4 0 1 0 0 0 0 0 0 0 0 0 0 0 0 0 0 0 0 0 0 0 2 2 0 0 0 266 980 1415 1605
0 0 0 0 0 0 0 0 0 0 0 0 0 0 5 9 0 0 0 0 0 1 1 0 0 0 0 3 0 0 0 0 0 0 0 0 5 26 10 0 0 180 600 1372 1650
0 0 0 0 0 0 0 0 0 0 0 0 0 0 0 0 1 0 1 0 0 0 0 0 20 0 0 0 0 0 0 0 0 0 0 0 0 6 10 0 179 404 743 1528 1562
0 0 0 0 0 0 0 0 0 0 0 0 0 0 0 0 0 3 17 3 1 1 0 0 0 0 0 0 0 0 0 0 0 0 0 0 0 0 0 2 21 257 1047 1799 1371
0 0 0 0 0 0 0 0 0 0 0 0 0 0 0 0 0 0 0 0 0 0 91 153 3 1 2 11 0 0 0 0 0 0 0 0 2 151 673 561 633 1395 1575 2283 1813
0 0 0 0 0 0 0 0 0 0 0 0 0 0 0 0 0 0 0 0 0 0 0 15 23 84 9 9 13 4 0 0 2 11 0 0 219 135 733 653 1036 1653 2326 2406 2165
0 0 0 1 7 6 0 0 0 0 0 0 0 0 0 0 0 0 0 0 0 0 0 32 85 108 8 0 0 0 0 0 0 0 1 2 651 555 57 17 213 2103 2723 2282 1646
0 0 0 0 0 0 0 0 0 0 1 10 2 0 0 0 0 0 0 0 0 0 0 58 98 150 37 24 22 0 1 12 2 0 0 11 332 165 5 328 876 1248 2433 2484 2194
0 0 0 0 0 19 39 8 0 6 0 1 7 1 0 0 48 15 0 0 0 72 3 124 365 146 146 30 41 2 7 167 11 13 205 167 673 581 1185 1489 1565 1917 2119 1835 1600
CIN
0 0 0 0 0 0 0 0 0 0 0 0 0 0 0 0 0 0 0 0 0 0 0 -72 -261 -120 -148 -110 -74 -38 -21 -7 0 -4 0 0 0 -31 -14 -26 -30 -40 -24 -48 -98
0 0 0 0 0 0 0 0 0 0 0 0 0 0 0 0 0 0 0 0 0 0 0 -16 -166 -161 -89 -119 -13 -5 -11 -2 0 0 0 -3 0 0 -3 -22 -8 -56 -94 -105 -116
0 0 0 0 0 0 0 0 0 0 0 0 0 0 0 0 0 0 0 0 0 0 0 0 0 0 0 0 0 0 0 -6 -3 0 0 0 -11 0 -5 -45 -101 -30 -106 -132 -126
0 0 0 0 0 0 0 0 0 0 0 0 0 0 0 0 0 0 0 0 0 0 0 0 0 0 0 0 -2 -1 0 -2 -4 0 0 -2 0 -3 0 -3 -6 -34 -75 -108 -117
0 0 0 0 0 0 0 0 0 0 0 0 0 0 0 0 0 0 0 0 0 0 0 0 0 0 0 0 0 0 0 -5 0 0 0 0 0 -15 0 -5 -16 -25 -72 -94 -83
0 0 0 0 0 0 0 0 0 0 0 0 0 0 0 0 0 0 0 0 0 0 0 0 0 0 0 0 0 0 0 0 0 0 0 0 0 -1 -31 -22 -7 -38 -63 -80 -37
0 0 0 0 0 0 0 0 0 0 0 0 0 0 0 0 0 0 0 0 0 0 0 0 0 0 0 0 0 0 0 0 0 0 -1 0 0 -1 -20 -43 -5 -16 -65 -54 -8
0 0 0 0 0 0 0 0 0 0 0 0 0 0 0 0 0 0 0 0 0 0 0 0 0 0 0 0 0 0 0 0 0 0 -3 0 0 -7 -11 -105 -2 -12 -36 -28 -6
0 0 0 0 0 0 0 0 0 0 0 0 0 0 0 0 0 0 0 0 0 0 0 0 0 0 0 0 0 0 0 0 0 0 0 0 0 0 -7 -67 -10 -2 -23 -23 -11
0 0 0 0 0 0 0 0 0 0 0 0 0 0 0 0 0 0 0 0 0 0 0 0 0 0 0 0 0 0 0 0 0 0 0 0 0 0 -1 -4 -6 -10 -32 -28 -13
0 0 0 0 0 0 0 0 0 0 0 0 0 0 0 0 0 0 0 0 0 0 0 0 0 0 0 0 0 0 0 0 0 0 0 0 0 0 0 -5 0 -10 -20 -38 -26
0 0 0 0 0 0 0 0 0 0 0 0 0 0 0 0 0 0 0 0 0 0 0 0 0 0 0 0 0 0 0 0 0 0 0 0 0 0 0 0 0 -5 -13 -36 -34
0 0 0 0 0 0 0 0 0 0 0 0 0 0 0 0 0 0 0 0 0 0 0 0 0 0 0 0 0 0 0 0 0 0 0 0 0 0 0 0 0 -17 -6 -19 -22
0 0 0 0 0 0 0 0 0 0 0 0 0 0 0 0 0 0 0 0 0 0 0 0 0 0 0 0 0 0 0 0 0 0 0 0 0 0 0 0 0 -47 -32 -10 -14
0 0 0 0 0 0 0 0 0 0 0 0 0 0 0 0 0 0 0 0 0 0 0 0 0 0 0 0 0 0 0 0 0 0 0 0 0 0 0 0 -6 -6 -2 -7 -15
0 0 0 0 0 0 0 0 0 0 0 0 0 0 0 0 0 0 0 0 0 0 0 0 0 0 0 0 0 0 0 0 0 0 0 0 0 0 -12 -6 -13 -36 0 -12 -18
0 0 0 0 0 0 0 0 0 0 0 0 0 0 0 0 0 0 0 0 0 0 0 0 0 0 0 0 0 0 0 0 0 0 0 0 0 0 -20 0 -6 -39 -16 -24 -37
0 0 0 0 0 0 0 0 0 0 0 0 0 -4 -3 -1 0 0 0 -8 -11 0 0 0 0 0 0 0 0 0 0 0 0 0 0 -13 0 0 -6 -2 -12 -38 -25 -53 -41
0 0 0 0 0 0 0 0 0 0 0 0 -22 -4 -22 -28 -14 -2 0 -2 -2 0 0 0 0 0 0 0 0 0 0 0 0 0 0 0 -41 -44 0 0 0 -33 -34 -32 -41
0 0 0 0 0 0 0 0 0 0 0 0 -12 0 -18 -17 -6 0 0 0 -9 -13 -6 0 0 0 -1 -9 -3 0 0 0 0 0 0 0 -6 -18 -17 0 0 -13 -36 -40 -48
0 0 0 0 0 0 0 0 0 0 0 0 0 0 0 0 -49 -12 -37 0 0 -3 0 -1 -4 0 0 0 0 -2 0 0 0 0 0 0 0 -38 -33 0 -8 -1 -12 -40 -57
0 0 0 0 0 0 0 0 0 0 0 0 0 0 0 0 0 -48 -49 -40 -3 -16 0 0 0 0 0 0 -21 0 0 0 0 0 0 -1 -1 0 0 -1 -1 -8 -18 -46 -60
0 0 0 0 0 0 0 0 0 0 0 0 0 0 0 0 0 0 0 0 0 0 -38 -27 -17 -21 -20 -24 -10 0 0 0 -3 0 0 -6 -7 -49 -14 -12 -21 -5 -12 -23 -44
0 0 0 0 0 0 0 0 0 0 0 0 0 0 0 0 0 0 0 0 0 0 0 -61 -19 -12 -18 -15 -24 -38 -4 0 -8 -16 0 0 -61 -69 -96 -83 -65 -5 -8 -15 -16
0 0 0 -8 -21 -1 0 0 0 0 0 0 0 0 0 0 0 0 0 0 0 0 0 -28 -27 -12 -19 0 -29 0 0 0 0 0 -26 -22 -67 -142 -202 -53 -147 -5 -6 -31 -58
0 0 0 0 0 0 0 0 0 0 -17 -22 -13 0 0 0 0 0 0 0 0 0 0 -44 -20 -18 -40 -19 -11 0 -7 -45 -25 0 0 -6 -46 -167 -253 -123 -63 -18 -2 0 -10
0 0 0 0 0 -3 -10 -19 -1 -5 0 -19 -8 -20 0 0 -7 -4 0 0 0 -6 -12 -67 -10 -13 -17 -73 -74 -33 -4 -35 -62 -41 -9 -19 -80 -35 -13 -25 -54 -29 -4 -50 -67
Wind_Speed
27 28 28 28 28 28 28 29 28 28 27 27 27 26 26 27 26 23 23 20 9 5 19 20 20 20 20 19 17 14 6 1 15 16 10 14 17 16 15 17 20 22 22 24 24
29 29 30 30 30 30 30 30 30 30 30 29 29 28 28 28 25 25 23 5 6 3 17 22 20 22 20 20 19 15 8 5 8 10 8 5 14 9 15 15 13 24 26 24 23
30 31 31 32 32 33 33 33 32 32 32 32 31 30 29 29 25 21 10 7 4 8 20 24 26 22 20 21 19 17 11 12 13 23 7 7 20 11 13 13 15 18 20 20 20
32 33 33 34 34 34 34 34 34 34 34 33 33 32 30 23 20 16 10 9 6 8 20 22 25 22 20 18 21 12 19 17 20 19 5 6 10 10 17 20 16 18 17 17 17
34 34 35 36 36 36 36 36 36 36 35 34 33 31 27 24 30 15 12 10 7 5 14 23 23 22 20 20 22 21 18 22 24 21 17 7 7 4 11 17 15 17 15 16 15
35 36 37 38 38 39 39 39 38 38 36 35 32 28 24 31 17 13 10 10 8 5 13 18 24 27 27 27 23 24 27 24 25 20 14 6 12 12 14 17 12 13 13 14 14
36 38 39 39 40 41 41 41 41 39 38 35 29 24 29 27 24 13 8 10 5 3 2 8 24 31 30 26 26 26 21 20 20 20 7 21 3 10 9 12 9 10 11 12 14
37 38 40 40 41 43 44 44 42 40 38 32 26 23 32 26 20 12 9 11 5 7 20 28 25 31 31 28 28 25 23 12 14 17 7 6 4 12 12 12 10 8 9 11 13
37 39 40 42 43 44 45 45 44 38 29 26 25 23 36 20 17 16 11 12 9 11 17 24 24 29 32 11 12 11 4 13 12 23 5 7 0 11 12 10 9 7 7 9 12
39 40 41 42 43 44 46 45 36 30 25 24 27 30 30 29 21 18 12 12 13 15 18 16 22 27 23 16 23 22 7 5 2 4 3 3 2 3 6 10 7 6 6 7 10
40 41 42 44 44 44 38 31 27 24 22 29 26 26 36 22 19 15 11 13 17 22 20 16 20 21 22 17 10 25 32 34 33 30 22 14 14 9 30 9 11 4 5 6 7
41 42 43 45 45 42 26 24 23 27 38 36 39 42 38 33 26 20 16 19 20 24 22 24 24 22 27 33 32 28 28 28 30 27 20 11 7 7 9 10 12 4 4 4 6
41 42 43 45 44 26 27 24 26 29 32 44 42 42 39 32 30 25 18 21 24 26 25 29 27 21 23 24 27 26 26 28 28 28 25 20 11 6 10 7 9 13 1 5 6
42 42 43 45 23 29 23 23 26 29 32 39 38 38 36 35 39 28 26 22 27 31 25 28 28 29 29 23 26 30 28 23 21 19 22 14 17 5 6 4 4 4 5 4 7
42 40 40 31 23 20 26 29 28 22 32 25 24 16 24 32 30 31 24 24 31 31 31 38 35 31 27 29 26 26 26 27 27 22 21 18 18 9 2 8 6 6 5 8 9
43 40 37 24 15 14 22 27 22 17 24 21 33 24 13 22 30 30 22 22 26 30 36 41 33 33 24 28 24 26 27 23 22 21 25 13 12 10 3 2 8 14 5 8 7
45 40 26 19 13 25 25 19 14 17 19 20 25 31 9 25 27 24 30 25 30 36 38 40 40 33 31 26 25 22 20 24 24 20 20 5 9 6 6 4 4 2 5 6 6
46 47 19 10 11 14 16 11 16 17 16 34 35 37 38 15 21 34 38 38 22 25 34 36 40 34 27 23 25 23 19 24 26 22 21 19 11 2 11 13 8 7 5 7 5
46 25 13 6 5 10 9 11 11 19 34 32 34 33 35 35 35 23 20 38 29 20 35 38 44 29 15 17 18 25 31 23 29 35 31 25 13 23 8 7 7 4 5 6 2
31 24 10 11 9 8 8 11 24 38 37 35 33 33 32 33 34 37 40 36 33 48 24 27 39 47 45 35 17 20 24 25 27 30 31 29 31 21 3 1 6 2 4 4 4
22 21 14 11 10 7 8 10 28 35 37 33 30 31 32 33 35 35 32 39 35 48 41 51 45 47 39 45 31 16 25 28 34 27 23 21 25 16 10 11 6 3 6 7 6
19 18 13 11 9 7 10 30 31 34 34 34 25 35 37 35 30 30 31 28 33 31 46 31 36 39 42 40 11 24 23 19 29 30 33 34 30 10 22 10 7 10 5 8 7
19 17 8 10 10 6 26 26 17 32 33 30 34 33 36 38 35 32 31 26 30 34 22 27 32 29 41 38 33 17 28 27 18 28 38 33 29 11 15 12 12 7 4 6 6
17 19 11 9 6 10 29 28 29 24 29 32 35 36 35 37 39 37 34 26 23 26 26 26 29 33 34 35 9 23 15 13 27 23 24 29 20 17 16 13 20 9 4 3 3
13 14 22 12 15 23 29 31 30 28 26 21 29 33 37 37 38 41 38 32 26 24 25 24 30 30 34 39 35 34 30 40 29 36 31 34 11 11 9 10 22 15 7 5 4
14 22 21 12 28 29 26 21 26 28 28 29 30 29 34 36 39 41 39 37 32 25 25 27 31 31 36 37 35 31 40 24 40 13 33 35 15 12 12 7 9 17 11 9 7
21 23 14 10 19 29 26 24 27 27 27 31 29 29 27 34 32 33 40 37 35 26 25 24 27 29 38 32 36 28 34 30 23 31 26 22 7 4 6 7 8 7 11 10 11
Wind_Direction
324 323 321 319 316 315 313 309 305 303 300 297 295 293 289 287 275 257 224 241 245 360 276 216 205 215 225 226 214 207 163 178 92 82 100 7 74 92 63 79 84 75 78 88 96
322 320 318 317 315 313 312 309 306 303 301 299 296 296 296 294 275 245 222 9 347 74 170 190 196 217 213 223 228 208 161 169 343 346 117 183 68 125 64 43 88 69 70 88 96
319 318 317 314 312 312 310 309 307 304 301 299 298 294 298 302 275 266 4 17 81 141 179 193 220 230 213 230 221 224 198 245 255 344 185 185 13 130 95 49 139 95 84 94 98
318 315 314 312 310 308 307 306 305 305 303 300 300 299 294 315 304 336 26 35 83 141 178 185 211 214 210 212 236 193 223 232 264 261 162 204 201 88 47 43 91 102 94 103 99
317 315 312 310 308 307 305 303 302 301 301 301 302 307 303 297 265 338 353 10 36 126 164 188 195 204 207 220 237 242 214 251 262 251 8 150 128 134 36 39 42 95 96 112 104
319 317 314 311 308 305 302 300 299 298 298 300 305 311 305 282 322 347 355 3 359 112 166 183 202 225 232 246 236 240 250 251 244 237 220 93 221 23 20 354 72 90 100 110 111
318 317 315 313 310 307 303 300 296 295 295 298 304 308 292 287 301 340 353 334 14 38 345 167 211 239 242 233 234 241 235 233 221 225 185 269 162 65 37 26 75 96 102 108 117
317 315 313 311 309 307 304 299 295 293 294 299 304 302 286 293 303 296 313 316 339 321 287 264 287 274 237 237 240 236 234 213 212 212 5 47 97 56 97 57 77 101 95 104 115
312 312 312 311 308 306 302 296 293 296 300 300 300 297 285 302 283 292 288 294 307 308 299 282 288 276 262 207 255 209 256 211 211 221 6 7 225 349 0 57 67 80 83 102 108
326 323 316 312 308 305 302 295 301 303 299 294 288 288 285 281 284 282 273 279 290 299 296 294 288 284 290 297 296 303 312 194 332 132 105 15 134 34 215 9 24 68 72 110 115
325 322 317 317 317 313 318 321 312 302 293 280 285 277 277 305 287 276 259 271 279 284 285 288 286 288 289 292 296 296 289 281 278 283 321 327 332 337 253 358 353 74 73 119 127
322 318 316 315 313 311 330 326 325 309 292 283 277 273 273 281 277 272 275 258 265 273 281 281 277 285 283 277 283 293 297 295 290 297 312 313 286 312 208 340 330 347 108 106 131
325 324 322 316 307 332 325 323 321 311 299 282 276 271 267 266 267 270 262 259 261 268 274 275 281 286 283 286 287 291 295 297 298 300 309 317 316 283 213 334 336 322 355 130 143
328 328 328 321 342 331 336 339 323 316 303 294 279 269 263 261 261 262 263 255 259 264 270 278 281 279 278 287 289 287 291 298 307 310 310 320 309 287 214 214 144 96 356 132 130
329 332 333 341 338 340 328 325 322 320 304 313 302 268 246 249 256 260 252 254 258 262 268 270 275 279 278 281 288 290 292 293 302 307 309 312 312 311 216 191 161 138 112 98 123
329 333 337 347 343 337 331 323 321 313 300 310 287 306 238 250 256 256 252 239 256 261 265 266 275 275 280 282 287 292 289 293 301 305 298 302 304 306 165 123 319 319 352 82 87
324 332 337 337 341 335 331 333 317 300 324 309 285 267 272 270 265 252 253 244 245 255 258 264 266 272 274 284 288 292 286 286 290 293 299 271 284 312 338 72 329 51 128 53 20
323 312 342 337 346 343 339 330 302 316 298 283 273 265 264 276 268 259 254 254 237 248 261 263 264 264 270 271 280 283 283 280 285 293 310 299 302 228 292 299 358 331 1 344 15
323 348 345 347 16 354 345 308 291 298 270 275 284 272 258 252 245 211 235 250 249 236 260 265 265 272 239 244 263 274 274 282 285 283 294 293 315 291 307 316 328 359 351 341 60
348 351 351 43 21 5 335 300 291 259 258 273 275 271 267 262 261 252 249 254 211 220 252 264 268 255 248 246 225 253 273 277 278 283 287 289 285 306 272 325 335 63 47 35 115
358 356 28 28 14 355 318 318 289 260 253 275 284 275 271 269 268 276 267 246 267 245 255 245 256 254 259 252 261 241 264 270 271 279 285 292 291 325 330 310 352 69 59 94 124
359 354 32 24 356 346 321 291 287 274 270 274 284 269 266 266 279 261 249 290 284 273 225 246 258 258 251 233 213 264 269 262 269 274 274 279 283 353 294 313 327 320 76 108 126
356 347 358 16 348 348 286 299 316 274 274 280 271 270 263 261 264 256 261 288 264 247 279 261 250 258 240 242 247 263 265 266 267 269 266 275 276 331 22 358 332 4 34 94 122
9 359 31 11 348 333 292 287 295 301 285 276 268 266 267 259 258 260 257 253 271 268 277 267 260 256 250 248 220 233 208 260 261 271 272 266 281 286 309 323 324 326 5 35 347
26 14 357 9 357 310 285 285 293 289 294 291 278 265 259 260 260 256 256 262 246 291 266 273 258 263 248 240 262 268 262 249 266 262 269 252 283 286 292 318 315 295 314 343 341
8 353 346 346 296 295 301 318 294 284 294 279 275 280 264 258 253 257 260 265 266 282 281 270 258 261 254 252 259 263 241 207 221 219 265 262 275 274 287 303 299 300 298 320 340
348 348 353 360 304 267 300 307 282 285 293 288 280 276 280 259 269 264 254 261 265 280 270 280 271 260 252 267 258 274 236 273 279 261 270 263 280 293 318 323 343 322 297 336 337